FW9628 Weather Reports


time (UTC)temp
F
wind
direction
speed
knots
gust
knots
rain 1hr
in
rain 24hr
in
rain mn
in
humidity
%
barometer
mb
20260504044529 48 140 3.5 11.3 0.00 0.00 0.00 46 1015.6
20260504043037 49 140 7.0 13.0 0.00 0.00 0.00 43 1015.5
20260504041530 49 140 6.1 12.2 0.00 0.00 0.00 44 1015.3
20260504040028 50 140 7.8 14.8 0.00 0.00 0.00 42 1015.1
20260504034530 50 140 7.8 14.8 0.00 0.00 0.00 40 1014.8
20260504033031 51 140 6.1 14.8 0.00 0.00 0.00 40 1014.6
20260504031533 52 140 6.1 18.2 0.00 0.00 0.00 39 1014.4
20260504030028 52 140 7.0 14.8 0.00 0.00 0.00 39 1014.1
20260504024533 53 140 6.1 15.6 0.00 0.00 0.00 38 1013.9
20260504023031 54 140 8.7 17.4 0.00 0.00 0.00 39 1013.7
20260504021530 54 140 7.0 13.9 0.00 0.00 0.00 41 1013.6
20260504020032 54 140 7.0 13.0 0.00 0.00 0.00 43 1013.7
20260504014538 54 141 7.0 17.4 0.00 0.00 0.00 42 1013.5
20260504013036 55 140 9.6 19.1 0.00 0.00 0.00 40 1013.5
20260504011531 56 141 8.7 20.9 0.00 0.00 0.00 39 1013.3
20260504010030 56 140 6.1 13.9 0.00 0.00 0.00 41 1013.0
20260504004533 56 140 8.7 18.2 0.00 0.00 0.00 40 1012.9
20260504003028 57 140 8.7 16.5 0.00 0.00 0.00 40 1012.7
20260504001528 56 140 5.2 16.5 0.00 0.00 0.00 42 1012.5
20260504000031 57 140 8.7 17.4 0.00 0.00 0.00 41 1012.5
20260503234530 57 140 7.8 13.9 0.00 0.00 0.00 41 1012.4
20260503233033 57 140 7.8 15.6 0.00 0.00 0.00 39 1012.2
20260503231528 58 140 9.6 18.2 0.00 0.00 0.00 38 1012.1
20260503230030 58 140 7.8 18.2 0.00 0.00 0.00 39 1012.1
20260503224529 59 139 9.6 22.6 0.00 0.00 0.00 37 1011.9
20260503223028 59 140 11.3 20.0 0.00 0.00 0.00 37 1011.7
20260503221529 59 140 10.4 17.4 0.00 0.00 0.00 36 1011.6
20260503220041 59 140 11.3 20.9 0.00 0.00 0.00 36 1011.7
20260503214530 59 140 8.7 21.7 0.00 0.00 0.00 37 1011.6
20260503213030 59 139 11.3 22.6 0.00 0.00 0.00 37 1011.6
20260503211527 59 140 9.6 19.1 0.00 0.00 0.00 37 1011.6
20260503210027 59 140 9.6 19.1 0.00 0.00 0.00 37 1011.6
20260503204527 59 140 8.7 18.2 0.00 0.00 0.00 36 1011.5
20260503203044 59 140 8.7 20.0 0.00 0.00 0.00 38 1011.5
20260503201533 59 140 10.4 19.1 0.00 0.00 0.00 37 1011.5
20260503200027 59 141 10.4 20.9 0.00 0.00 0.00 37 1011.4
20260503194538 60 139 13.9 23.5 0.00 0.00 0.00 36 1011.4
20260503193032 60 139 9.6 21.7 0.00 0.00 0.00 35 1011.3
20260503191530 61 139 10.4 19.1 0.00 0.00 0.00 34 1011.1
20260503190038 61 139 11.3 22.6 0.00 0.00 0.00 35 1011.0
20260503184530 61 140 8.7 22.6 0.00 0.00 0.00 35 1011.2
20260503183031 61 140 7.8 19.1 0.00 0.00 0.00 36 1011.2
20260503181530 61 140 7.0 17.4 0.00 0.00 0.00 35 1011.0
20260503180033 61 140 8.7 19.1 0.00 0.00 0.00 34 1011.1
20260503174528 60 139 9.6 18.2 0.00 0.00 0.00 35 1011.2
20260503173031 61 139 6.1 16.5 0.00 0.00 0.00 38 1011.3
20260503171532 61 140 7.0 14.8 0.00 0.00 0.00 36 1011.2
20260503081536 57 139 5.2 8.7 0.00 0.00 0.00 37 1010.8